QPF
0.00 0.00 0.00 0.00 0.00 0.00 0.00 0.00 0.00 0.00 0.00 0.00 0.00 0.00 0.00 0.00 0.00 0.00 0.00 0.00 0.00 0.00 0.00 0.00 0.00 0.00 0.00 0.00 0.00 0.00 0.00 0.00 0.00 0.00 0.00 0.00 0.00 0.00 0.00 0.00 0.00 0.00 0.00
0.00 0.00 0.00 0.00 0.00 0.00 0.00 0.00 0.00 0.00 0.00 0.00 0.00 0.00 0.00 0.00 0.00 0.00 0.00 0.00 0.00 0.00 0.00 0.00 0.00 0.00 0.00 0.00 0.00 0.00 0.00 0.00 0.00 0.00 0.00 0.00 0.00 0.00 0.00 0.00 0.00 0.00 0.00
0.00 0.00 0.00 0.00 0.00 0.00 0.00 0.00 0.00 0.00 0.00 0.00 0.00 0.00 0.00 0.00 0.00 0.00 0.00 0.00 0.00 0.00 0.00 0.00 0.00 0.00 0.00 0.00 0.00 0.00 0.00 0.00 0.00 0.00 0.00 0.00 0.00 0.00 0.00 0.00 0.00 0.00 0.00
0.00 0.00 0.00 0.00 0.00 0.00 0.00 0.00 0.00 0.00 0.00 0.00 0.00 0.00 0.00 0.00 0.00 0.00 0.00 0.00 0.00 0.00 0.00 0.00 0.00 0.00 0.00 0.00 0.00 0.00 0.00 0.00 0.00 0.00 0.00 0.00 0.00 0.00 0.00 0.00 0.00 0.00 0.00
0.00 0.00 0.00 0.00 0.00 0.00 0.00 0.00 0.00 0.00 0.00 0.00 0.00 0.00 0.00 0.00 0.00 0.00 0.00 0.00 0.00 0.00 0.00 0.00 0.00 0.00 0.00 0.00 0.00 0.00 0.00 0.00 0.00 0.00 0.00 0.00 0.00 0.00 0.00 0.00 0.00 0.00 0.00
0.00 0.00 0.00 0.00 0.00 0.00 0.00 0.00 0.00 0.00 0.00 0.00 0.00 0.00 0.00 0.00 0.00 0.00 0.00 0.00 0.00 0.00 0.00 0.00 0.00 0.00 0.00 0.00 0.00 0.00 0.00 0.00 0.00 0.00 0.00 0.00 0.00 0.00 0.00 0.00 0.00 0.00 0.00
0.00 0.00 0.00 0.00 0.00 0.00 0.00 0.00 0.00 0.00 0.00 0.00 0.00 0.00 0.00 0.00 0.00 0.00 0.00 0.00 0.00 0.00 0.00 0.00 0.00 0.00 0.00 0.00 0.00 0.00 0.00 0.00 0.00 0.00 0.00 0.00 0.00 0.00 0.00 0.00 0.00 0.00 0.00
0.00 0.00 0.00 0.00 0.00 0.00 0.00 0.00 0.00 0.00 0.00 0.00 0.00 0.00 0.00 0.00 0.00 0.00 0.00 0.00 0.00 0.00 0.00 0.00 0.00 0.00 0.00 0.00 0.00 0.00 0.00 0.00 0.00 0.00 0.00 0.00 0.00 0.00 0.00 0.00 0.00 0.00 0.00
0.00 0.00 0.00 0.00 0.00 0.00 0.00 0.00 0.00 0.00 0.00 0.00 0.00 0.00 0.00 0.00 0.00 0.00 0.00 0.00 0.00 0.00 0.00 0.00 0.00 0.00 0.00 0.00 0.00 0.00 0.00 0.00 0.00 0.00 0.00 0.00 0.00 0.00 0.00 0.00 0.00 0.00 0.00
0.00 0.00 0.00 0.00 0.00 0.00 0.00 0.00 0.00 0.00 0.00 0.00 0.00 0.00 0.00 0.00 0.00 0.00 0.00 0.00 0.00 0.00 0.00 0.00 0.00 0.00 0.00 0.00 0.00 0.00 0.00 0.00 0.00 0.00 0.00 0.00 0.00 0.00 0.00 0.00 0.00 0.00 0.00
0.00 0.00 0.00 0.00 0.00 0.00 0.00 0.00 0.00 0.00 0.00 0.00 0.00 0.00 0.00 0.00 0.00 0.00 0.00 0.00 0.00 0.00 0.00 0.00 0.00 0.00 0.00 0.00 0.00 0.00 0.00 0.00 0.00 0.00 0.00 0.00 0.00 0.00 0.00 0.00 0.00 0.00 0.00
0.00 0.00 0.00 0.00 0.00 0.00 0.00 0.00 0.00 0.00 0.00 0.00 0.00 0.00 0.00 0.00 0.00 0.00 0.00 0.00 0.00 0.00 0.00 0.00 0.00 0.00 0.00 0.00 0.00 0.00 0.00 0.00 0.00 0.00 0.00 0.00 0.00 0.00 0.00 0.00 0.00 0.00 0.00
0.00 0.00 0.00 0.00 0.00 0.00 0.00 0.00 0.00 0.00 0.00 0.00 0.00 0.00 0.00 0.00 0.00 0.00 0.00 0.00 0.00 0.00 0.00 0.00 0.00 0.00 0.00 0.00 0.00 0.00 0.00 0.00 0.00 0.00 0.00 0.00 0.00 0.00 0.00 0.00 0.00 0.00 0.00
0.00 0.00 0.00 0.00 0.00 0.00 0.00 0.00 0.00 0.00 0.00 0.00 0.00 0.00 0.00 0.00 0.00 0.00 0.00 0.00 0.00 0.00 0.00 0.00 0.00 0.00 0.00 0.00 0.00 0.00 0.00 0.00 0.00 0.00 0.00 0.00 0.00 0.00 0.00 0.00 0.00 0.00 0.00
0.00 0.00 0.00 0.00 0.00 0.00 0.00 0.00 0.00 0.00 0.00 0.00 0.00 0.00 0.00 0.00 0.00 0.00 0.00 0.00 0.00 0.00 0.00 0.00 0.00 0.00 0.00 0.00 0.00 0.00 0.00 0.00 0.00 0.00 0.00 0.00 0.00 0.00 0.00 0.00 0.00 0.00 0.00
0.00 0.00 0.00 0.00 0.00 0.00 0.00 0.00 0.00 0.00 0.00 0.00 0.00 0.00 0.00 0.00 0.00 0.00 0.00 0.00 0.00 0.00 0.00 0.00 0.00 0.00 0.00 0.00 0.00 0.00 0.00 0.00 0.00 0.00 0.00 0.00 0.00 0.00 0.00 0.00 0.00 0.00 0.00
0.00 0.00 0.00 0.00 0.00 0.00 0.00 0.00 0.00 0.00 0.00 0.00 0.00 0.00 0.00 0.00 0.00 0.00 0.00 0.00 0.00 0.00 0.00 0.00 0.00 0.00 0.00 0.00 0.00 0.00 0.00 0.00 0.00 0.00 0.00 0.00 0.00 0.00 0.00 0.00 0.00 0.00 0.00
0.00 0.00 0.00 0.00 0.00 0.00 0.00 0.00 0.00 0.00 0.00 0.00 0.00 0.00 0.00 0.00 0.00 0.00 0.00 0.00 0.00 0.00 0.00 0.00 0.00 0.00 0.00 0.00 0.00 0.00 0.00 0.00 0.00 0.00 0.00 0.00 0.00 0.00 0.00 0.00 0.00 0.00 0.00
0.00 0.00 0.00 0.00 0.00 0.00 0.00 0.00 0.00 0.00 0.00 0.00 0.00 0.00 0.00 0.00 0.00 0.00 0.00 0.00 0.00 0.00 0.00 0.00 0.00 0.00 0.00 0.00 0.00 0.00 0.00 0.00 0.00 0.00 0.00 0.00 0.00 0.00 0.00 0.00 0.00 0.00 0.00
0.00 0.00 0.00 0.00 0.00 0.00 0.00 0.00 0.00 0.00 0.00 0.00 0.00 0.00 0.00 0.00 0.00 0.00 0.00 0.00 0.00 0.00 0.00 0.00 0.00 0.00 0.00 0.00 0.00 0.00 0.00 0.00 0.00 0.00 0.00 0.00 0.00 0.00 0.00 0.00 0.00 0.00 0.00
0.00 0.00 0.00 0.00 0.00 0.00 0.00 0.00 0.00 0.00 0.00 0.00 0.00 0.00 0.00 0.00 0.00 0.00 0.00 0.00 0.00 0.00 0.00 0.00 0.00 0.00 0.00 0.00 0.00 0.00 0.00 0.00 0.00 0.00 0.00 0.00 0.00 0.00 0.00 0.00 0.00 0.00 0.00
0.00 0.00 0.00 0.00 0.00 0.00 0.00 0.00 0.00 0.00 0.00 0.00 0.00 0.00 0.00 0.00 0.00 0.00 0.00 0.00 0.00 0.00 0.00 0.00 0.00 0.00 0.00 0.00 0.00 0.00 0.00 0.00 0.00 0.00 0.00 0.00 0.00 0.00 0.00 0.00 0.00 0.00 0.00
0.00 0.00 0.00 0.00 0.00 0.00 0.00 0.00 0.00 0.00 0.00 0.00 0.00 0.00 0.00 0.00 0.00 0.00 0.00 0.00 0.00 0.00 0.00 0.00 0.00 0.00 0.00 0.00 0.00 0.00 0.00 0.00 0.00 0.00 0.00 0.00 0.00 0.00 0.00 0.00 0.00 0.00 0.00
0.00 0.00 0.00 0.00 0.00 0.00 0.00 0.00 0.00 0.00 0.00 0.00 0.00 0.00 0.00 0.00 0.00 0.00 0.00 0.00 0.00 0.00 0.00 0.00 0.00 0.00 0.00 0.00 0.00 0.00 0.00 0.00 0.00 0.00 0.00 0.00 0.00 0.00 0.00 0.00 0.00 0.00 0.00
0.00 0.00 0.00 0.00 0.00 0.00 0.00 0.00 0.00 0.00 0.00 0.00 0.00 0.00 0.00 0.00 0.00 0.00 0.00 0.00 0.00 0.00 0.00 0.00 0.00 0.00 0.00 0.00 0.00 0.00 0.00 0.00 0.00 0.00 0.00 0.00 0.00 0.00 0.00 0.00 0.00 0.00 0.00
0.00 0.00 0.00 0.00 0.00 0.00 0.00 0.00 0.00 0.00 0.00 0.00 0.00 0.00 0.00 0.00 0.00 0.00 0.00 0.00 0.00 0.00 0.00 0.00 0.00 0.00 0.00 0.00 0.00 0.00 0.00 0.00 0.00 0.00 0.00 0.00 0.00 0.00 0.00 0.00 0.00 0.00 0.00
MSLP
1019.17 1018.92 1018.72 1018.63 1018.49 1018.39 1018.43 1018.39 1018.24 1018.12 1017.82 1017.65 1017.68 1017.65 1017.49 1017.48 1017.52 1017.59 1017.47 1017.46 1017.42 1017.49 1017.62 1017.69 1017.68 1017.98 1017.98 1018.21 1018.38 1018.59 1018.74 1019.07 1018.44 1017.82 1018.67 1019.09 1019.54 1019.84 1020.36 1020.77 1021.36 1021.65 1021.92
1020.00 1019.63 1019.35 1018.97 1018.68 1018.46 1018.47 1018.36 1018.25 1017.82 1017.42 1017.27 1017.17 1017.19 1017.09 1016.95 1016.87 1016.90 1016.90 1016.88 1016.79 1016.77 1016.77 1016.86 1016.88 1017.13 1017.08 1017.23 1017.39 1017.63 1017.76 1017.85 1017.95 1017.37 1017.98 1018.92 1019.10 1019.44 1019.60 1020.13 1020.66 1020.99 1021.42
1020.49 1020.10 1019.68 1019.42 1019.19 1018.83 1018.73 1018.46 1018.08 1017.61 1017.12 1016.83 1016.79 1016.76 1016.62 1016.45 1016.44 1016.33 1016.06 1015.86 1015.71 1015.55 1015.61 1015.77 1015.80 1016.18 1016.18 1016.42 1016.54 1016.45 1016.69 1016.79 1016.88 1017.05 1017.35 1018.37 1018.60 1019.00 1019.28 1019.80 1020.13 1020.57 1021.12
1021.62 1021.29 1021.00 1020.49 1020.02 1019.61 1019.22 1018.68 1018.12 1017.71 1017.33 1016.94 1016.66 1016.43 1016.24 1016.04 1015.99 1015.84 1015.72 1015.57 1015.29 1015.15 1015.11 1014.95 1014.99 1015.08 1015.04 1015.28 1015.66 1015.65 1015.68 1015.69 1015.96 1016.34 1016.84 1017.50 1017.80 1018.18 1018.55 1019.23 1019.86 1020.34 1020.77
1021.98 1021.70 1021.50 1021.04 1020.50 1020.02 1019.51 1018.95 1018.31 1017.70 1017.19 1016.78 1016.40 1016.02 1015.89 1015.71 1015.48 1015.31 1015.07 1014.88 1014.75 1014.61 1014.54 1014.45 1014.46 1014.45 1014.51 1014.41 1014.47 1014.60 1014.88 1015.31 1015.48 1015.62 1016.00 1016.68 1017.04 1017.58 1017.57 1018.25 1018.96 1019.82 1020.60
1021.39 1021.27 1021.05 1020.81 1020.45 1020.04 1019.50 1018.90 1018.39 1017.81 1017.32 1016.82 1016.21 1015.74 1015.32 1015.04 1014.87 1014.73 1014.52 1014.31 1014.25 1014.15 1013.99 1013.92 1013.90 1014.03 1013.97 1013.96 1013.80 1013.78 1013.80 1014.04 1014.50 1014.77 1014.90 1015.02 1015.53 1016.19 1016.94 1017.56 1018.56 1019.30 1020.32
1021.52 1021.29 1021.05 1020.78 1020.43 1019.87 1019.45 1019.01 1018.49 1018.00 1017.53 1016.98 1016.33 1015.61 1015.11 1014.76 1014.41 1014.19 1014.12 1013.87 1013.82 1013.65 1013.71 1013.63 1013.56 1013.52 1013.44 1013.53 1013.29 1013.34 1013.28 1013.30 1013.12 1013.61 1013.93 1014.34 1014.90 1015.32 1016.09 1016.93 1017.69 1018.16 1018.84
1021.48 1021.28 1021.03 1020.86 1020.54 1020.10 1019.68 1019.27 1018.68 1018.18 1017.75 1017.31 1016.70 1016.09 1015.47 1014.58 1013.95 1013.89 1013.79 1013.62 1013.46 1013.37 1013.30 1013.22 1013.04 1012.90 1012.92 1012.96 1012.92 1013.07 1012.96 1012.94 1012.95 1013.22 1013.75 1014.09 1014.50 1015.01 1015.30 1016.17 1017.16 1018.16 1018.95
1021.86 1021.54 1021.33 1021.13 1020.69 1020.30 1019.79 1019.28 1018.67 1017.98 1017.53 1016.96 1016.58 1015.90 1015.37 1014.75 1014.02 1013.53 1013.39 1013.55 1013.27 1012.98 1012.75 1012.71 1012.61 1012.42 1012.46 1012.63 1012.71 1012.48 1012.78 1013.03 1012.89 1012.98 1013.40 1013.92 1014.49 1015.05 1015.59 1016.38 1016.89 1018.15 1019.06
1022.18 1021.89 1021.70 1021.40 1020.93 1020.29 1019.71 1019.14 1018.56 1018.14 1017.38 1016.86 1016.24 1015.71 1015.23 1014.66 1014.11 1013.60 1013.21 1013.12 1013.07 1012.73 1012.65 1012.66 1012.52 1012.44 1012.33 1011.95 1011.70 1012.17 1012.61 1012.92 1013.21 1013.73 1013.96 1014.28 1014.51 1015.27 1015.67 1016.09 1016.61 1017.56 1018.52
1022.38 1022.08 1021.64 1021.20 1020.77 1020.26 1019.69 1019.15 1018.46 1017.81 1017.17 1016.69 1016.07 1015.60 1015.09 1014.58 1013.96 1013.31 1013.11 1012.88 1012.91 1012.55 1012.69 1012.58 1012.45 1012.33 1011.87 1011.94 1011.91 1011.75 1012.33 1012.85 1013.18 1013.69 1014.22 1014.82 1015.13 1015.54 1015.95 1016.71 1016.95 1017.50 1018.31
1022.20 1021.66 1021.12 1020.89 1020.19 1019.78 1019.44 1018.83 1018.16 1017.45 1016.96 1016.44 1015.83 1015.29 1014.63 1014.20 1013.76 1013.21 1012.65 1012.68 1012.70 1012.44 1012.54 1012.51 1012.12 1012.16 1011.83 1011.50 1011.76 1011.99 1012.24 1012.83 1013.38 1013.79 1014.52 1015.05 1015.34 1015.78 1016.46 1016.91 1017.31 1017.86 1018.24
1022.22 1021.50 1020.83 1020.35 1019.81 1019.23 1018.80 1018.51 1018.08 1017.54 1017.02 1016.28 1015.77 1015.14 1014.63 1014.13 1013.81 1013.32 1012.86 1012.31 1012.35 1012.52 1012.85 1012.57 1012.05 1011.97 1011.77 1011.51 1011.73 1012.21 1012.45 1013.09 1013.27 1014.10 1014.60 1015.23 1015.54 1016.20 1016.78 1017.46 1018.17 1018.73 1019.22
1022.39 1021.59 1020.66 1019.90 1019.16 1018.69 1018.29 1017.99 1017.62 1017.28 1016.87 1016.28 1015.90 1015.44 1014.92 1014.47 1013.99 1013.30 1012.76 1012.48 1012.41 1012.86 1012.68 1012.42 1012.39 1012.13 1011.94 1012.25 1012.03 1012.33 1012.88 1013.22 1013.40 1014.23 1014.80 1015.52 1015.94 1016.60 1017.29 1017.91 1018.74 1019.39 1020.13
1022.47 1021.62 1020.62 1019.70 1018.90 1018.07 1017.76 1017.32 1017.12 1016.73 1016.39 1015.90 1015.51 1015.27 1015.00 1014.53 1013.90 1013.38 1012.98 1012.98 1013.00 1012.84 1012.80 1012.50 1012.67 1012.74 1012.68 1012.79 1012.96 1013.16 1013.10 1013.65 1014.12 1014.56 1015.20 1015.84 1016.38 1016.94 1017.63 1018.27 1018.87 1019.57 1020.13
1022.55 1021.60 1020.73 1019.83 1019.10 1018.17 1017.56 1017.06 1016.77 1016.38 1016.05 1015.47 1015.08 1014.81 1014.61 1014.24 1013.63 1013.24 1013.18 1013.12 1013.06 1013.18 1013.10 1013.18 1013.39 1013.66 1013.90 1013.96 1013.94 1014.26 1014.11 1014.33 1015.10 1015.39 1015.76 1016.24 1016.69 1017.39 1018.00 1018.73 1019.25 1019.89 1020.41
1022.69 1021.68 1020.68 1019.80 1018.79 1018.08 1017.62 1017.25 1017.04 1016.39 1016.14 1015.83 1015.43 1014.82 1014.38 1014.00 1013.67 1013.43 1013.31 1013.40 1013.53 1013.46 1013.90 1013.94 1014.19 1014.68 1015.00 1015.05 1015.18 1015.44 1015.69 1015.91 1015.94 1016.34 1016.49 1016.94 1017.24 1017.94 1018.54 1019.14 1019.67 1020.13 1020.63
1022.41 1021.48 1020.47 1019.45 1018.54 1017.74 1017.27 1017.03 1016.94 1016.90 1016.77 1016.32 1016.01 1015.92 1015.10 1014.46 1013.98 1013.75 1013.81 1013.94 1014.54 1014.99 1015.28 1015.51 1015.83 1016.05 1016.13 1016.36 1016.52 1016.67 1017.01 1016.94 1017.30 1017.67 1017.94 1018.15 1018.32 1018.64 1019.23 1019.76 1020.26 1020.65 1021.05
1021.88 1020.87 1019.84 1018.90 1018.05 1017.31 1016.86 1016.83 1016.92 1016.96 1017.06 1016.96 1016.58 1016.31 1016.32 1015.81 1015.42 1015.14 1014.97 1015.47 1016.16 1016.70 1016.99 1017.21 1017.44 1017.52 1017.70 1017.94 1018.13 1018.25 1018.24 1018.64 1018.81 1019.00 1019.35 1019.37 1019.51 1019.80 1020.24 1020.58 1020.98 1021.36 1021.68
1020.96 1020.05 1019.13 1018.34 1017.58 1016.94 1016.66 1016.76 1016.98 1017.16 1017.36 1017.30 1017.24 1017.08 1016.95 1016.75 1016.87 1017.21 1017.39 1017.48 1017.78 1018.19 1018.54 1018.78 1019.16 1019.28 1019.25 1019.29 1019.33 1019.42 1019.59 1019.91 1020.19 1020.26 1020.47 1020.53 1020.73 1020.90 1021.23 1021.56 1022.08 1022.44 1022.71
1020.53 1019.66 1018.86 1018.07 1017.35 1016.85 1016.68 1016.81 1017.07 1017.32 1017.67 1017.73 1017.87 1017.56 1017.72 1017.96 1018.52 1018.90 1019.16 1019.47 1019.57 1019.72 1019.83 1020.00 1020.25 1020.41 1020.58 1020.58 1020.55 1020.62 1020.81 1021.05 1021.30 1021.38 1021.45 1021.64 1021.74 1022.32 1022.39 1022.49 1023.10 1023.44 1023.33
1020.16 1019.45 1018.72 1018.09 1017.48 1017.08 1016.90 1017.01 1017.34 1017.70 1018.13 1018.45 1018.84 1018.92 1018.98 1019.28 1019.73 1020.18 1020.48 1020.73 1020.90 1021.02 1021.07 1020.95 1021.18 1021.50 1021.63 1021.61 1021.69 1021.49 1021.73 1021.96 1022.04 1022.18 1022.35 1022.56 1022.72 1022.92 1023.12 1023.52 1023.80 1023.97 1023.92
1019.83 1019.26 1018.76 1018.29 1017.83 1017.56 1017.56 1017.69 1018.01 1018.33 1018.76 1019.17 1019.45 1019.74 1020.07 1020.36 1020.70 1021.15 1021.47 1021.56 1021.59 1021.60 1021.61 1021.52 1021.57 1022.01 1022.19 1022.25 1022.36 1022.24 1022.16 1022.44 1022.60 1022.92 1022.90 1023.07 1023.30 1023.47 1023.71 1024.32 1024.48 1024.44 1024.36
1019.80 1019.45 1019.11 1018.72 1018.32 1018.12 1018.27 1018.65 1018.92 1019.22 1019.59 1019.93 1020.14 1020.41 1020.70 1020.98 1021.20 1021.54 1021.80 1021.92 1022.02 1022.16 1021.96 1021.89 1021.98 1022.18 1022.34 1022.46 1022.51 1022.55 1022.59 1022.61 1022.69 1022.84 1022.94 1023.30 1023.59 1023.89 1024.03 1024.22 1024.35 1024.45 1024.52
1020.20 1019.92 1019.59 1019.36 1019.14 1018.98 1019.17 1019.54 1019.71 1020.03 1020.27 1020.54 1020.84 1021.09 1021.27 1021.42 1021.64 1021.88 1022.02 1022.04 1022.05 1022.03 1022.20 1022.25 1022.29 1022.28 1022.33 1022.34 1022.38 1022.36 1022.32 1022.33 1022.49 1022.60 1022.87 1023.12 1023.62 1023.70 1023.83 1023.99 1024.17 1024.29 1024.34
1020.88 1020.65 1020.38 1020.30 1020.16 1019.93 1020.12 1020.33 1020.45 1020.63 1020.82 1021.07 1021.33 1021.47 1021.61 1021.72 1021.86 1022.00 1022.11 1022.15 1022.18 1022.28 1022.35 1022.33 1022.19 1022.10 1022.09 1022.04 1021.97 1021.88 1021.85 1021.76 1021.91 1022.00 1022.30 1022.69 1023.29 1023.33 1023.48 1023.66 1023.94 1024.12 1024.26
Thickness
5606 5605 5605 5605 5604 5602 5600 5598 5597 5595 5594 5593 5590 5588 5586 5582 5578 5576 5575 5572 5570 5565 5560 5556 5552 5544 5540 5534 5527 5521 5515 5507 5510 5521 5504 5499 5492 5486 5479 5474 5466 5460 5454
5585 5586 5587 5588 5589 5589 5587 5585 5584 5584 5584 5583 5580 5577 5574 5572 5570 5566 5564 5561 5558 5555 5551 5546 5542 5534 5531 5525 5518 5512 5507 5502 5498 5505 5496 5484 5480 5474 5469 5462 5455 5449 5443
5568 5570 5571 5571 5571 5572 5569 5569 5569 5571 5572 5571 5569 5566 5565 5563 5560 5557 5555 5554 5552 5550 5546 5540 5536 5526 5523 5516 5509 5506 5500 5495 5491 5488 5489 5472 5468 5462 5456 5449 5443 5436 5428
5544 5546 5546 5548 5550 5551 5552 5553 5555 5556 5556 5555 5554 5553 5551 5549 5547 5545 5542 5540 5540 5538 5534 5531 5526 5521 5517 5510 5501 5496 5492 5488 5482 5476 5469 5461 5457 5452 5446 5438 5429 5421 5414
5528 5529 5528 5529 5530 5531 5532 5534 5536 5538 5539 5540 5540 5540 5537 5535 5533 5530 5529 5527 5525 5524 5520 5517 5512 5508 5502 5499 5494 5489 5482 5472 5467 5465 5460 5450 5445 5438 5437 5428 5419 5408 5399
5514 5513 5514 5514 5513 5513 5515 5517 5518 5519 5519 5519 5520 5521 5520 5517 5514 5512 5509 5509 5506 5504 5504 5500 5496 5490 5486 5482 5480 5476 5473 5465 5458 5454 5452 5450 5444 5433 5422 5415 5403 5393 5382
5498 5496 5495 5495 5495 5495 5495 5494 5494 5494 5494 5495 5496 5498 5499 5496 5494 5493 5489 5488 5485 5484 5481 5478 5475 5472 5468 5464 5462 5460 5457 5454 5451 5444 5441 5436 5427 5420 5410 5400 5391 5383 5375
5478 5476 5474 5474 5473 5473 5472 5472 5472 5472 5472 5471 5472 5471 5472 5474 5476 5473 5471 5468 5467 5464 5462 5459 5458 5457 5452 5448 5445 5440 5438 5436 5433 5428 5422 5417 5411 5404 5395 5387 5377 5365 5354
5454 5453 5451 5451 5453 5452 5452 5454 5454 5455 5453 5453 5451 5452 5452 5453 5455 5455 5453 5448 5448 5447 5445 5442 5440 5439 5435 5431 5428 5428 5422 5416 5415 5410 5405 5399 5391 5383 5375 5366 5359 5344 5333
5432 5429 5426 5425 5425 5427 5428 5429 5430 5428 5434 5434 5434 5432 5431 5432 5432 5433 5432 5430 5429 5427 5424 5422 5420 5419 5417 5418 5418 5411 5405 5399 5394 5387 5383 5378 5374 5364 5355 5348 5341 5333 5320
5410 5407 5406 5405 5404 5404 5407 5406 5407 5407 5409 5408 5411 5410 5407 5409 5411 5412 5411 5410 5407 5408 5404 5403 5401 5401 5402 5398 5397 5394 5388 5382 5376 5369 5363 5355 5351 5344 5337 5326 5321 5313 5303
5392 5392 5391 5386 5388 5385 5383 5385 5385 5386 5386 5387 5387 5387 5386 5387 5388 5389 5391 5389 5387 5386 5385 5383 5383 5382 5382 5381 5377 5374 5371 5364 5356 5350 5343 5336 5332 5325 5316 5309 5302 5294 5289
5372 5372 5372 5370 5367 5367 5366 5364 5362 5359 5360 5363 5363 5365 5365 5362 5361 5364 5365 5367 5366 5364 5360 5362 5365 5364 5364 5363 5360 5356 5350 5343 5340 5331 5325 5317 5313 5305 5298 5291 5284 5275 5268
5348 5349 5351 5352 5351 5348 5346 5343 5341 5337 5336 5338 5336 5338 5337 5338 5339 5342 5344 5343 5343 5339 5341 5342 5342 5343 5343 5339 5340 5336 5331 5326 5323 5315 5308 5299 5295 5287 5280 5272 5263 5254 5245
5327 5328 5329 5331 5333 5334 5329 5327 5326 5322 5321 5319 5318 5316 5316 5315 5318 5323 5323 5320 5317 5319 5318 5321 5320 5319 5319 5318 5315 5313 5312 5306 5301 5295 5288 5281 5275 5269 5261 5253 5245 5237 5230
5307 5308 5308 5308 5309 5312 5313 5311 5309 5308 5307 5308 5308 5307 5303 5304 5307 5307 5305 5303 5302 5300 5299 5300 5298 5296 5293 5292 5293 5287 5288 5285 5276 5271 5267 5262 5257 5249 5242 5233 5227 5219 5214
5281 5285 5287 5289 5294 5295 5293 5287 5288 5289 5290 5289 5290 5292 5294 5294 5294 5294 5292 5289 5286 5284 5278 5281 5279 5274 5271 5270 5267 5263 5260 5255 5253 5248 5245 5240 5237 5230 5224 5218 5212 5206 5201
5263 5266 5269 5275 5279 5282 5279 5274 5272 5269 5266 5268 5269 5267 5272 5276 5279 5279 5276 5272 5264 5260 5256 5254 5252 5250 5247 5244 5242 5239 5234 5235 5230 5226 5222 5218 5216 5213 5207 5203 5198 5191 5186
5250 5254 5257 5261 5265 5268 5267 5262 5258 5256 5250 5250 5250 5250 5247 5250 5252 5253 5253 5247 5240 5235 5232 5229 5226 5226 5224 5221 5218 5216 5216 5211 5208 5205 5201 5201 5199 5195 5188 5185 5180 5174 5168
5239 5242 5246 5249 5253 5254 5252 5249 5245 5240 5237 5236 5233 5231 5230 5231 5229 5225 5223 5222 5219 5215 5211 5207 5204 5203 5203 5202 5201 5199 5197 5193 5190 5189 5185 5183 5178 5175 5169 5164 5158 5151 5144
5225 5227 5230 5234 5236 5237 5237 5236 5232 5228 5224 5221 5217 5217 5215 5211 5206 5202 5199 5196 5195 5194 5193 5191 5188 5187 5185 5184 5184 5182 5179 5176 5171 5170 5167 5161 5157 5152 5146 5143 5133 5126 5120
5211 5213 5215 5217 5220 5222 5222 5221 5218 5215 5210 5204 5198 5197 5196 5193 5188 5184 5181 5179 5178 5177 5177 5177 5175 5172 5170 5169 5167 5166 5161 5157 5153 5149 5145 5140 5136 5130 5125 5118 5113 5106 5098
5198 5200 5200 5202 5204 5206 5204 5204 5202 5200 5195 5189 5185 5182 5179 5176 5173 5170 5166 5165 5166 5166 5166 5166 5165 5161 5159 5157 5154 5151 5147 5143 5140 5136 5130 5123 5117 5111 5103 5096 5090 5084 5077
5184 5185 5185 5187 5189 5190 5189 5187 5185 5182 5178 5174 5172 5169 5167 5165 5163 5160 5157 5156 5156 5155 5155 5155 5152 5150 5147 5144 5141 5137 5134 5130 5126 5120 5115 5106 5097 5089 5082 5074 5068 5060 5053
5168 5168 5170 5171 5173 5174 5173 5171 5169 5166 5164 5162 5159 5157 5155 5154 5152 5149 5147 5147 5147 5146 5144 5142 5140 5137 5134 5131 5128 5124 5119 5114 5108 5102 5095 5088 5077 5068 5058 5050 5042 5035 5030
5151 5152 5154 5156 5157 5159 5158 5156 5155 5153 5151 5148 5146 5145 5144 5143 5142 5140 5138 5137 5136 5133 5132 5130 5127 5125 5121 5117 5113 5107 5102 5096 5089 5082 5074 5066 5056 5047 5040 5032 5023 5016 5011